Theta_e
325 318 315 316 317 314 310 302 297 292 292 288 285 286 287 292 292 290 290 293 294 293 296 294 293 296 296 293 294 294 293 294 294 288 288 293 306 313 314 315 317 320 323 325 331 331 334 338 344 347 347 348 347 347 347 348 347 348 349 348 346 344 344 344 343 342 342 341 340 341 343 344 344 345 345 346 346 346 346 346 345 345 347 348 348 349 350 350 348 348 349 347 345 346 346 347 347
318 316 315 316 315 313 306 294 287 285 283 281 284 285 288 290 293 290 289 292 292 297 294 294 293 293 292 293 292 293 293 298 297 299 298 304 313 315 316 318 316 319 322 326 330 330 331 333 341 344 346 347 347 347 347 347 347 347 348 348 347 344 344 343 343 343 343 342 342 344 344 345 345 344 344 346 346 346 346 347 346 346 347 348 349 349 349 349 349 348 349 347 347 347 346 346 346
315 314 316 316 310 306 301 296 291 280 283 284 282 286 289 290 289 290 292 293 295 294 292 293 293 292 293 293 292 293 293 294 303 304 307 311 312 314 317 316 316 318 321 324 327 330 332 334 338 342 345 346 347 347 346 347 347 346 347 348 347 344 343 343 343 343 343 343 344 344 345 345 345 342 343 345 346 346 347 347 347 346 347 349 350 349 348 349 349 349 348 350 346 344 345 345 344
314 315 310 309 304 298 294 289 284 283 287 281 280 285 286 289 290 293 292 293 293 292 293 295 295 294 295 291 292 292 291 293 302 307 305 307 313 311 313 316 318 316 318 322 325 328 332 334 337 339 343 346 346 346 346 346 344 345 346 348 345 345 345 342 343 343 343 343 345 345 345 344 345 343 344 345 345 346 347 347 347 347 348 349 349 348 350 348 350 349 348 347 346 344 344 344 344
315 318 310 303 300 295 290 288 284 282 285 280 285 285 288 289 293 291 291 292 292 292 294 294 292 293 294 294 291 292 292 293 300 308 305 306 308 311 312 315 315 315 317 319 322 325 328 333 335 338 341 344 346 346 345 343 344 344 346 347 346 345 345 343 343 343 344 344 344 344 344 344 344 344 344 344 345 345 347 347 347 347 348 350 349 347 348 350 350 348 346 344 346 344 342 342 343
309 309 309 308 302 301 292 288 288 286 288 285 285 288 286 291 292 292 291 291 292 291 293 292 294 294 294 291 291 291 291 298 300 305 307 308 310 312 312 316 314 314 315 317 320 321 322 331 335 337 340 343 345 344 343 342 342 345 346 347 345 345 345 342 343 344 343 340 337 340 342 343 344 344 344 343 344 345 346 346 347 347 348 348 348 347 349 349 349 349 348 347 346 344 342 343 344
307 304 301 303 298 297 289 284 283 284 288 289 288 286 289 290 291 292 292 293 294 290 291 295 290 293 291 293 295 296 297 303 304 306 311 309 310 310 312 314 313 315 314 315 318 320 322 331 336 338 339 341 343 343 342 341 342 344 346 346 344 344 343 344 342 338 340 340 340 338 339 341 342 343 343 343 343 344 344 345 346 345 346 347 346 346 349 346 345 348 348 347 345 344 342 343 343
311 304 300 295 289 288 285 284 285 284 288 291 289 290 292 290 289 290 291 291 291 292 291 290 290 292 293 293 292 293 300 302 306 306 305 307 308 308 311 313 313 313 313 316 317 320 326 332 336 338 339 341 342 342 341 341 342 343 344 345 342 344 342 344 341 341 338 338 339 338 338 338 341 342 341 340 342 342 343 343 344 345 346 345 345 346 344 341 349 349 346 345 344 342 342 342 342
302 304 298 289 288 283 279 283 284 286 287 288 291 291 300 296 289 289 289 288 288 288 289 290 289 290 289 287 291 292 292 299 303 304 307 304 308 309 312 311 313 313 312 316 319 321 322 331 335 337 339 340 342 341 342 342 342 342 343 346 344 344 343 343 342 341 340 338 335 337 338 339 339 338 339 340 341 341 342 343 344 344 346 344 344 344 343 342 344 342 343 344 344 342 342 342 341
299 298 292 288 286 288 281 282 284 286 287 288 288 291 290 290 289 289 290 290 289 289 288 288 289 291 292 291 290 293 293 300 302 306 306 305 308 308 310 312 312 310 312 316 320 321 321 327 333 336 338 339 340 341 341 340 342 342 343 344 344 344 342 343 342 338 336 337 336 338 339 338 338 337 337 338 338 341 341 342 341 345 345 343 344 343 342 343 344 345 344 343 343 342 341 341 341
293 294 291 286 282 282 283 285 284 286 287 290 290 292 292 288 288 288 287 289 288 290 289 289 290 290 290 290 290 292 299 300 304 307 308 307 305 307 310 309 310 311 313 315 319 321 322 324 327 333 335 338 339 340 340 339 341 341 341 343 343 344 344 344 342 337 337 337 337 338 338 338 337 337 337 337 337 340 341 341 342 343 343 341 342 342 345 344 345 343 342 341 342 341 341 340 340
293 291 288 286 282 285 281 283 285 288 290 287 287 288 290 289 289 291 288 289 289 288 288 290 292 288 288 286 289 290 297 301 305 306 304 305 304 306 308 309 311 314 315 316 319 321 321 322 325 327 332 335 337 339 339 339 339 340 341 343 341 343 343 342 339 337 337 336 336 337 338 339 338 339 338 338 339 340 341 341 341 342 341 341 338 339 344 344 343 342 341 339 339 340 341 341 340
293 288 285 283 283 283 282 283 286 289 286 285 289 290 288 290 291 290 289 288 287 288 291 290 292 292 290 289 290 289 295 303 306 305 302 303 304 304 306 309 312 317 321 320 321 320 320 322 324 326 328 331 331 333 334 335 336 338 340 342 339 342 341 340 339 336 335 336 337 338 339 339 340 339 340 341 340 340 341 340 340 340 341 339 341 340 341 341 341 339 338 339 339 339 339 340 340
292 288 290 289 284 284 284 285 283 285 285 287 286 288 289 291 289 290 289 290 290 289 291 289 292 291 290 289 293 292 293 298 303 305 301 302 303 305 306 309 313 319 323 325 325 323 322 322 324 326 329 330 330 328 328 331 334 336 338 339 337 339 340 340 338 336 334 337 337 337 336 336 336 339 340 341 340 341 341 341 340 339 339 338 340 340 339 339 339 339 339 339 339 338 339 339 338
296 291 285 283 283 283 283 288 286 284 287 287 289 289 290 293 290 288 290 289 291 291 290 290 292 292 288 289 292 289 294 295 300 304 301 303 303 305 308 313 316 319 322 325 327 326 326 324 325 327 328 329 330 327 327 329 331 333 335 335 335 338 338 337 336 335 334 335 335 333 331 329 329 332 335 336 338 337 336 336 338 339 338 339 339 338 339 338 337 338 338 338 338 338 337 337 335
295 290 288 288 284 284 284 285 282 284 287 286 287 286 288 290 290 292 291 292 292 291 291 294 293 293 292 291 298 294 291 294 302 302 303 304 306 309 313 314 316 319 321 324 326 327 327 326 326 328 329 328 328 325 327 327 329 329 332 333 334 335 334 334 333 333 329 327 328 328 326 325 326 327 326 331 332 335 333 331 334 340 338 335 336 337 338 337 337 337 337 338 339 338 337 335 334
295 292 288 280 285 283 285 285 285 286 291 288 286 289 291 290 290 288 290 289 291 292 290 290 294 294 293 294 295 292 294 302 304 303 303 304 306 310 312 314 316 318 321 323 325 325 326 326 327 328 329 328 326 326 327 327 328 328 328 328 329 330 330 330 330 327 323 322 321 321 321 325 323 324 323 325 322 326 324 325 332 337 336 334 335 337 337 338 337 338 338 339 339 337 333 332 329
291 287 286 284 282 283 285 287 285 288 289 292 290 287 289 289 289 290 291 290 289 290 290 292 290 291 295 294 293 297 299 302 302 304 302 302 307 309 311 313 315 316 319 321 324 325 325 326 327 328 328 329 326 326 327 327 326 328 327 327 327 327 326 325 324 322 318 321 320 322 323 320 321 321 323 321 321 323 323 324 328 334 336 333 333 337 337 337 338 338 338 339 338 334 329 329 327
288 284 285 286 281 287 288 287 287 289 293 292 290 289 289 291 290 290 290 291 289 290 292 291 292 294 295 294 294 299 300 301 303 303 302 302 306 307 308 310 314 317 318 320 322 325 325 326 327 327 328 328 326 326 327 326 325 324 324 325 325 325 323 321 322 322 322 322 322 323 320 321 318 321 322 322 321 321 324 323 327 332 334 332 331 334 335 336 337 337 338 337 335 330 326 325 325
290 290 286 283 287 287 287 289 291 289 291 291 291 289 287 289 289 290 290 290 288 289 292 292 289 293 294 292 291 298 299 300 303 303 303 303 304 306 307 308 312 315 317 319 320 325 325 325 326 328 327 327 327 326 326 326 327 325 324 323 324 323 323 322 322 322 322 323 324 323 320 319 317 320 319 317 317 322 321 321 324 325 326 326 324 328 331 333 335 334 333 332 327 323 323 323 322
292 289 286 288 287 289 291 288 291 291 289 289 288 287 287 292 289 289 288 289 292 294 295 293 295 295 294 292 291 297 299 300 302 303 303 304 304 306 308 308 310 312 315 316 319 323 325 325 326 327 327 327 327 326 326 325 325 325 323 322 322 321 320 320 321 321 321 322 322 322 321 317 316 320 322 322 320 319 321 322 325 325 325 325 323 324 324 323 323 323 321 318 318 320 319 318 320
289 291 290 289 287 289 295 291 290 289 286 287 286 287 292 288 288 287 288 288 291 295 298 293 293 294 292 292 291 295 298 300 302 302 303 304 304 305 307 309 309 309 313 316 319 322 325 326 326 326 327 327 327 326 326 324 324 324 322 322 321 320 320 319 320 320 320 321 319 320 318 319 317 319 320 321 321 321 323 324 326 324 322 322 322 320 319 317 317 317 317 317 317 319 318 317 318
290 288 288 289 290 291 292 291 290 287 290 288 287 290 287 289 290 291 289 291 295 299 298 294 292 293 292 290 292 294 297 299 301 303 304 304 304 306 307 308 309 310 313 316 318 322 325 326 326 327 326 327 327 325 326 323 324 324 322 321 321 321 321 321 320 320 319 318 319 318 319 318 318 317 320 321 321 322 322 324 325 323 321 321 320 319 316 314 314 314 314 315 316 316 316 316 316
290 290 287 293 289 289 293 292 290 288 286 290 290 287 288 291 288 289 290 295 296 297 297 294 294 292 289 291 292 294 297 299 301 303 305 305 306 306 307 308 310 311 311 315 317 321 324 326 326 326 326 326 327 326 325 324 324 323 322 319 320 319 320 321 321 320 320 319 318 320 320 321 320 319 321 321 323 321 322 324 323 322 320 320 320 318 315 313 313 313 314 314 314 314 314 314 314
289 288 287 289 288 291 289 288 288 288 288 290 287 287 290 291 289 288 292 294 296 297 294 294 292 289 288 288 290 291 294 297 300 302 304 306 307 307 307 308 309 311 312 314 317 320 324 325 326 326 326 325 327 326 324 324 323 323 321 321 322 319 321 321 321 321 320 319 319 320 320 321 321 321 321 320 322 323 322 323 322 320 319 319 319 317 315 313 313 313 314 314 314 313 313 313 313
288 290 287 288 291 293 292 291 290 289 289 287 286 286 289 291 290 289 293 295 296 296 293 294 289 289 290 290 290 290 291 294 297 299 302 304 306 306 307 308 309 310 313 314 316 319 323 326 325 325 326 325 326 326 324 323 323 322 322 322 322 319 321 321 320 320 321 320 320 321 320 321 321 321 322 321 322 321 320 321 319 319 318 316 317 316 314 314 313 313 313 314 313 313 313 312 313
287 287 287 289 291 290 290 288 291 289 287 286 287 287 288 289 290 290 290 292 292 291 292 291 288 290 291 291 291 290 290 292 294 297 299 302 304 305 307 307 308 310 313 315 316 319 322 325 325 325 326 323 325 325 325 324 323 323 321 322 323 321 322 321 321 321 320 320 320 321 321 319 319 317 319 319 320 320 320 320 318 316 316 315 314 315 315 314 313 313 314 314 314 313 312 312 313
287 287 287 290 289 290 290 289 287 286 290 284 286 287 289 285 287 289 294 296 294 290 291 291 291 291 291 291 291 292 290 292 293 295 297 299 301 304 306 307 308 310 312 314 315 319 322 324 325 326 326 325 324 324 323 324 323 324 322 323 322 322 322 321 321 320 318 320 320 321 322 321 318 319 318 318 318 315 318 320 317 316 314 314 314 312 313 313 313 312 312 313 312 312 311 311 312
289 288 288 286 287 290 291 289 287 286 291 288 286 287 284 285 285 290 293 293 292 289 289 290 290 292 292 292 292 292 292 293 291 293 296 299 301 303 304 308 309 309 312 314 315 317 321 323 324 325 326 325 324 324 324 324 324 324 323 323 322 322 321 321 320 320 320 319 319 320 320 319 317 319 318 317 315 317 318 318 317 316 315 314 313 312 311 311 312 311 311 311 311 311 311 310 310
287 286 284 287 284 286 290 288 287 290 291 287 292 286 287 284 286 290 291 290 288 288 290 292 292 291 292 292 293 293 292 292 292 293 294 296 298 300 302 306 308 309 310 313 315 317 320 323 323 324 325 325 324 325 324 324 324 324 322 323 322 322 321 321 319 320 319 319 319 318 317 316 314 316 318 317 317 316 316 317 316 313 311 311 312 312 312 310 311 310 309 311 310 310 310 309 309
288 286 283 279 284 282 287 289 290 289 289 286 290 285 288 292 293 290 289 288 290 293 294 294 292 291 291 292 292 293 294 293 294 295 295 295 295 296 299 301 304 308 310 311 314 317 318 322 323 323 322 325 323 324 323 324 323 323 323 323 322 322 321 321 321 320 320 320 319 319 318 317 315 316 317 317 315 316 316 315 315 313 311 312 312 310 309 308 310 310 309 310 308 309 308 308 309
281 285 282 281 282 287 290 291 288 290 289 285 289 286 288 292 294 293 287 290 289 291 295 295 295 294 293 293 293 294 295 294 294 294 294 294 294 294 294 296 299 304 309 311 314 316 317 320 322 323 322 324 324 323 324 324 323 323 323 319 322 322 321 321 320 320 320 319 319 319 319 316 316 316 317 317 316 316 315 312 312 311 311 312 312 310 310 307 307 308 309 310 308 306 307 305 307
280 283 283 283 282 285 287 287 285 287 286 285 287 286 290 291 295 297 294 291 289 291 294 295 296 295 295 295 295 295 295 295 294 295 294 294 294 294 294 295 296 299 305 310 312 315 316 318 320 322 322 323 324 324 324 324 323 323 322 321 322 321 321 321 321 320 320 319 319 319 318 315 316 316 317 317 316 314 314 312 308 310 310 311 310 310 310 309 308 308 307 308 310 306 307 306 305
280 280 282 281 283 285 284 290 287 283 288 288 287 284 288 291 294 296 297 295 291 291 294 295 296 296 295 294 294 294 295 295 295 296 296 296 297 297 296 296 296 297 301 307 311 314 316 317 319 322 323 323 324 323 323 323 323 323 322 321 319 320 320 321 321 320 319 319 319 318 316 315 315 315 315 315 314 313 313 312 309 308 310 310 310 309 309 308 308 308 305 305 308 307 306 306 305
282 282 281 283 281 282 284 282 288 290 288 285 286 286 288 291 294 295 296 296 293 293 294 295 295 294 294 294 295 295 295 295 296 296 296 297 297 297 297 295 294 295 299 304 309 312 315 317 318 320 322 323 323 323 322 323 323 323 322 321 320 320 320 320 320 319 319 319 318 318 315 314 314 315 314 313 313 311 311 310 309 309 309 308 307 307 306 307 307 307 307 304 305 308 307 306 304
283 282 282 280 280 284 284 286 289 286 287 286 285 286 289 291 293 294 296 296 294 295 295 295 294 294 294 294 294 294 294 295 296 296 296 297 297 295 294 293 293 295 299 303 306 310 313 316 319 321 321 323 323 323 322 321 321 319 319 319 318 318 319 317 319 319 319 318 317 316 315 315 314 313 313 313 312 310 309 306 308 308 308 308 308 306 306 306 307 305 305 305 303 303 304 304 303
283 282 280 281 281 284 287 287 288 286 286 287 285 288 289 290 292 294 295 296 295 294 294 294 293 293 293 292 292 292 292 293 295 296 297 296 295 293 292 292 293 296 299 301 304 307 311 315 318 319 321 323 322 322 321 320 318 318 319 318 317 318 318 318 318 319 318 318 317 317 315 314 313 313 312 312 312 308 308 307 307 307 308 309 308 308 307 306 307 306 304 304 303 302 299 302 301
283 282 281 282 281 282 287 287 289 287 284 286 287 287 289 291 293 294 295 294 293 293 293 293 291 291 291 290 290 290 291 293 293 294 295 295 295 293 292 293 294 295 297 299 302 305 309 314 317 319 321 322 322 322 322 321 321 320 319 318 318 318 317 316 316 318 318 317 317 317 315 314 313 313 311 312 311 309 308 306 306 306 307 307 308 307 306 303 305 305 304 302 302 303 299 300 301
281 282 281 280 283 282 287 287 287 286 284 287 286 285 288 291 292 293 293 293 294 294 293 291 290 289 289 289 289 289 290 290 291 292 293 294 294 294 294 294 293 294 297 298 300 302 306 311 315 318 320 321 322 322 322 321 322 321 320 319 319 318 319 318 318 318 317 317 317 317 315 315 314 313 312 311 311 310 309 307 306 306 307 306 306 305 304 303 305 305 305 304 300 297 297 298 301
282 280 280 282 284 281 282 288 289 288 284 283 284 284 288 290 292 292 293 293 293 293 292 289 289 288 288 288 288 289 289 289 289 290 291 292 293 294 295 295 295 295 296 297 299 301 304 307 313 317 319 321 322 321 317 322 322 322 321 320 320 319 317 316 318 318 317 317 316 316 316 315 313 312 312 311 311 310 309 308 308 307 307 306 307 305 303 303 304 305 305 304 302 299 297 297 297
280 282 282 281 283 284 282 285 285 287 289 287 283 281 282 287 287 288 291 293 291 292 291 290 289 288 288 289 289 289 288 289 289 289 290 290 291 292 294 294 295 296 296 296 298 300 303 306 309 314 318 320 321 317 320 320 321 320 321 320 319 318 317 316 316 315 316 315 315 315 315 315 313 312 312 311 310 310 309 309 308 307 307 306 307 305 303 303 303 306 306 303 303 302 298 296 293
280 280 283 285 285 283 284 284 283 282 283 286 281 278 278 285 286 286 288 290 290 292 291 288 288 288 288 288 287 288 289 289 288 288 289 290 291 292 294 295 295 296 296 297 297 299 301 303 306 310 315 318 320 320 321 320 318 319 318 316 314 314 313 312 311 311 313 313 314 316 315 315 313 312 312 311 310 309 309 309 307 306 306 306 307 306 305 303 303 304 305 305 304 303 301 299 295
279 283 281 283 283 282 282 282 282 278 276 284 285 278 274 284 284 286 288 288 289 291 289 288 288 288 288 287 287 287 287 287 289 289 290 290 291 292 293 294 295 296 297 298 297 297 298 301 304 307 311 315 318 320 319 317 320 319 319 317 316 315 314 314 315 316 315 316 316 315 314 314 314 312 310 311 310 309 309 308 307 306 306 305 304 305 303 302 303 304 304 305 306 304 302 300 298
280 282 282 283 282 282 282 281 281 280 284 286 284 282 277 276 282 287 286 287 287 287 287 288 288 288 288 286 286 286 286 287 287 288 290 291 292 293 293 295 295 296 297 297 297 298 298 299 301 304 307 309 314 318 319 318 319 319 318 318 316 317 315 314 315 315 316 315 315 315 314 313 314 313 311 310 310 308 308 308 306 305 305 305 303 303 303 302 301 300 301 303 303 304 304 303 300
281 282 282 283 283 282 282 280 280 281 279 277 279 280 275 276 283 286 285 284 284 284 286 287 288 289 287 285 285 285 286 287 287 288 290 291 292 294 295 296 297 298 298 298 298 298 298 299 299 302 305 308 311 314 316 318 316 319 319 318 316 316 317 316 315 315 314 314 314 315 314 313 313 313 312 311 310 309 306 307 306 305 305 304 301 303 302 301 300 300 299 299 300 301 305 305 302
282 284 284 283 281 281 281 280 279 280 276 274 278 280 275 276 284 284 284 283 281 284 286 287 287 288 285 284 284 285 286 286 288 289 290 291 293 294 296 298 299 300 299 299 299 299 299 299 299 300 303 305 308 312 315 316 317 316 319 318 317 315 315 315 315 314 314 314 313 314 314 313 313 312 312 311 310 310 308 307 305 304 304 303 301 302 302 302 301 300 299 300 299 299 299 301 301
283 282 282 284 283 282 280 279 275 271 271 276 279 280 278 273 280 281 281 281 282 283 282 284 285 285 283 284 284 285 285 286 287 288 289 290 292 293 295 296 298 299 299 299 299 299 299 300 300 301 302 304 306 309 313 315 316 316 318 319 318 316 315 315 313 313 313 313 312 313 313 313 313 312 312 311 311 310 309 307 306 305 304 302 300 301 299 301 301 301 300 299 298 299 298 299 300
283 280 280 280 280 278 278 270 272 269 269 277 278 278 278 271 274 282 283 284 284 282 280 281 283 283 283 283 284 284 285 286 287 287 287 288 289 291 293 294 297 297 297 297 297 297 297 298 299 300 301 302 305 307 310 314 316 316 316 318 317 317 316 315 314 313 313 312 312 312 313 313 312 312 311 311 310 310 308 307 306 305 303 302 300 301 300 300 300 300 299 299 299 299 298 297 297
282 280 279 275 272 273 266 269 265 267 271 275 279 279 274 274 278 282 283 283 282 281 282 282 282 282 282 284 284 285 286 286 286 286 286 287 287 288 290 292 295 295 295 295 295 296 296 297 298 299 299 301 304 307 309 310 314 315 314 315 316 318 317 316 315 314 314 313 312 312 311 311 312 311 310 310 310 310 308 307 306 305 303 301 300 300 300 300 300 299 298 299 299 298 297 298 296
278 277 276 273 269 266 268 271 272 272 273 278 277 278 274 278 281 282 282 284 281 280 281 283 282 282 283 284 285 284 285 285 286 286 286 286 287 287 289 291 294 294 293 293 294 294 295 295 297 297 298 300 302 305 308 310 312 314 315 314 315 315 315 315 316 314 314 314 313 312 312 311 311 311 310 309 310 309 308 307 305 305 304 302 300 300 300 300 299 299 298 298 297 298 298 296 296
276 281 277 275 271 271 266 270 266 266 269 274 278 274 269 273 276 280 280 282 280 282 283 283 284 284 285 285 286 285 284 285 285 285 285 285 286 287 288 290 293 292 291 292 293 294 294 294 295 297 298 300 301 303 307 308 311 313 314 314 313 315 316 316 315 315 314 314 314 313 313 312 312 311 311 310 309 309 307 307 305 305 304 303 301 300 300 298 299 299 298 297 297 297 295 294 294
278 277 279 272 272 277 269 270 268 267 268 269 271 273 278 277 283 281 281 281 282 283 284 284 283 284 285 285 285 284 284 285 285 284 284 285 286 287 288 290 292 291 290 291 292 293 293 294 294 296 297 299 301 302 305 308 310 312 313 313 313 313 311 314 314 314 315 315 314 314 313 313 312 312 312 310 309 307 307 306 304 304 304 303 302 300 299 298 297 297 296 296 296 296 294 293 294
274 278 273 277 281 276 271 270 274 273 272 270 278 274 277 281 281 280 279 280 281 282 282 282 282 283 283 283 284 284 283 284 284 283 283 284 285 286 287 289 291 290 289 289 291 292 293 293 294 294 296 298 300 301 305 307 308 309 311 313 312 312 312 313 314 314 315 315 315 314 314 313 313 312 312 311 310 307 306 306 305 304 305 304 302 300 299 298 297 295 295 296 296 295 294 293 294
276 270 275 280 282 277 270 263 266 267 264 266 271 269 271 271 267 277 278 277 279 280 279 280 281 282 282 282 283 283 283 284 284 283 283 284 284 285 285 287 290 289 288 289 290 292 293 294 294 294 294 296 298 301 303 306 307 308 310 311 311 312 312 313 314 313 314 314 314 314 314 312 312 312 311 310 310 308 305 302 305 304 304 303 302 301 300 299 297 295 295 295 296 295 294 293 293
277 276 281 274 263 265 270 268 262 262 260 263 267 271 270 273 271 275 274 276 277 278 279 279 280 281 281 282 282 283 283 284 283 283 283 283 283 284 284 286 289 288 288 288 290 291 293 293 294 294 294 295 297 300 302 305 307 308 309 310 310 310 311 312 313 313 313 312 312 313 312 313 311 310 309 309 309 309 306 304 304 303 303 302 302 301 300 299 298 297 295 295 295 295 294 293 292
280 276 274 276 275 270 264 266 269 267 263 263 262 267 267 273 273 274 275 277 277 277 278 279 280 281 282 282 282 282 282 283 283 283 283 283 283 283 283 285 287 287 287 288 289 291 292 293 293 293 294 295 296 297 299 302 304 306 306 306 308 309 309 310 311 311 311 311 311 312 312 311 312 309 309 309 308 308 306 303 303 304 303 302 302 301 300 299 298 297 296 296 294 294 294 293 291
272 271 271 272 272 275 274 271 269 263 263 262 263 261 266 272 276 277 276 277 278 278 279 280 281 281 282 282 282 282 283 283 283 283 282 282 282 282 283 285 287 286 286 287 289 290 291 292 292 293 293 293 294 295 296 299 302 303 303 304 306 306 308 310 310 311 311 311 311 310 312 312 310 310 309 308 308 307 307 305 303 302 302 301 300 299 299 298 297 296 295 294 293 293 293 293 292
274 273 271 273 270 265 264 263 274 268 262 261 262 261 269 276 278 278 278 279 279 280 280 280 280 281 281 281 281 282 283 284 284 283 282 281 282 283 283 285 286 286 286 286 288 290 291 291 292 292 293 292 293 294 295 296 298 301 302 303 305 306 306 307 308 310 310 310 309 310 311 310 309 309 308 308 307 307 306 305 302 301 301 301 300 299 298 298 297 296 295 295 293 293 293 292 292
Wind_Speed
4 2 3 2 4 1 6 4 1 2 4 1 4 1 3 0 0 1 2 1 0 3 5 2 4 4 3 3 6 4 3 4 7 5 8 4 1 4 5 5 5 2 3 3 3 3 4 5 10 9 11 12 13 14 13 12 11 11 10 9 8 10 11 11 11 11 12 11 10 11 11 11 10 11 10 10 11 11 10 11 11 12 13 13 13 14 14 17 17 20 18 18 15 16 19 21 21
2 1 3 3 1 1 2 2 3 5 4 2 3 1 3 2 1 4 4 7 5 1 0 4 2 1 2 3 3 0 5 11 9 6 4 4 8 5 6 6 4 6 3 3 2 3 3 3 7 7 9 11 12 13 13 12 10 11 10 9 10 11 11 12 12 12 12 12 12 12 11 11 11 10 9 10 10 10 11 12 13 14 15 14 15 15 16 18 17 14 16 20 19 20 20 20 20
2 1 2 1 3 4 1 3 1 0 2 1 7 5 1 1 5 6 9 8 8 2 2 0 1 0 1 2 3 3 11 1 2 5 5 4 2 6 7 6 5 5 4 3 3 3 3 3 6 8 7 11 13 12 13 11 8 7 9 9 10 12 12 12 12 12 13 13 14 13 13 12 11 10 9 9 9 10 10 11 14 16 16 15 16 16 16 18 18 18 17 19 20 20 21 22 22
3 3 3 2 1 2 2 3 2 6 0 4 3 5 3 3 7 9 7 9 4 1 1 1 1 2 4 5 6 1 5 2 6 5 2 3 9 3 4 7 5 4 2 3 3 3 3 4 7 8 8 9 14 11 13 9 7 10 12 10 12 13 12 14 14 13 13 13 13 14 13 12 11 10 10 9 9 9 10 11 14 16 17 16 17 17 18 18 21 21 20 24 22 20 19 19 19
3 1 3 3 2 2 4 0 4 2 0 4 3 3 4 6 8 5 4 3 4 2 0 1 1 1 3 3 0 1 8 3 3 5 2 4 3 4 2 5 5 4 4 3 3 3 3 8 6 7 8 8 12 12 8 8 9 12 14 12 12 11 12 15 14 14 14 13 13 14 12 12 11 11 10 9 6 7 9 11 13 15 17 17 17 15 19 18 20 19 20 21 22 21 21 22 22
3 4 2 3 2 1 3 2 0 2 7 5 1 5 4 6 5 4 6 5 4 3 4 0 2 1 1 3 5 3 3 1 1 3 3 6 4 5 5 6 6 6 4 3 3 3 4 8 8 6 8 9 11 13 8 10 11 12 13 12 13 13 13 14 14 11 7 1 10 14 12 12 11 10 9 6 4 2 6 10 12 14 16 15 16 16 17 18 23 22 25 23 24 23 21 21 22
1 2 4 3 1 2 2 1 4 4 8 6 2 4 5 4 5 1 5 2 0 1 3 4 2 2 3 3 2 5 3 1 2 4 9 1 2 4 4 6 6 7 4 3 3 3 3 8 9 8 8 9 10 10 10 10 13 13 10 10 12 13 13 7 3 1 3 9 11 8 17 11 10 9 6 7 5 3 5 8 10 5 6 13 12 16 19 21 21 23 23 23 24 22 21 20 20
1 2 1 1 1 6 3 1 4 4 3 5 3 3 7 4 1 1 1 1 3 1 1 4 1 1 10 3 4 3 3 5 6 1 4 4 1 3 5 6 7 6 4 2 3 3 4 8 8 9 9 9 9 10 8 11 11 11 10 11 11 13 11 6 5 5 5 5 6 9 14 16 9 6 6 6 5 4 5 8 8 6 7 9 11 17 19 16 19 24 23 25 23 20 19 20 20
5 3 1 4 2 2 2 3 5 2 6 3 8 5 7 4 3 2 2 2 4 2 2 2 3 1 3 3 6 4 7 4 6 5 4 4 4 4 5 6 8 6 3 3 3 4 4 6 8 9 8 9 10 11 11 12 12 11 10 8 10 10 8 7 8 7 6 6 4 7 11 13 7 5 8 7 5 4 7 8 8 8 9 11 15 17 18 18 19 19 24 25 24 22 20 19 19
2 4 1 2 2 5 1 5 2 2 3 3 4 8 5 1 2 2 2 2 5 1 4 3 3 5 6 9 9 6 6 2 4 5 6 5 6 4 5 7 5 4 3 4 4 4 4 6 7 8 8 9 11 11 13 14 13 12 11 6 4 6 7 11 11 7 3 9 11 10 8 7 7 8 7 11 6 7 6 10 10 12 13 13 16 19 20 22 21 19 22 24 24 23 20 19 19
1 5 2 4 6 2 3 8 4 5 5 6 10 10 10 2 3 1 3 3 1 3 2 3 0 9 2 6 8 2 3 4 2 10 8 6 4 5 6 3 2 3 4 4 4 4 4 5 7 9 8 10 11 12 13 12 12 12 11 6 3 4 9 12 12 11 9 7 7 7 7 9 8 10 11 13 12 8 7 7 11 12 14 10 10 18 22 21 21 22 21 23 23 23 22 20 19
2 3 5 0 1 1 4 3 6 9 9 3 4 3 1 5 1 1 4 3 2 4 8 4 3 3 2 3 6 5 5 5 10 5 1 4 4 4 3 1 0 2 4 4 4 5 5 4 5 7 10 10 8 11 12 12 12 12 11 8 3 3 11 12 13 12 9 9 9 9 9 11 12 12 15 15 13 9 8 10 13 15 14 13 10 7 18 23 23 21 23 23 23 22 22 21 20
3 1 4 3 1 1 1 1 6 4 5 5 4 1 1 5 4 7 5 2 1 3 8 12 1 2 5 4 5 5 4 12 10 6 3 4 3 2 1 1 2 3 4 4 5 5 5 5 5 5 7 8 5 6 9 11 12 12 12 8 3 7 12 13 13 14 11 12 12 11 11 10 11 14 16 16 12 11 10 11 12 16 15 12 17 15 17 17 21 24 21 22 22 20 21 20 18
3 4 2 1 2 0 1 4 2 3 5 4 2 1 1 1 5 5 1 4 8 4 4 2 2 3 7 3 9 7 8 7 4 7 3 2 1 1 2 1 2 3 4 5 6 5 5 5 5 5 6 6 4 3 6 11 13 15 13 8 6 9 11 13 13 13 10 14 12 11 9 9 9 11 13 13 12 10 11 11 14 13 17 12 18 22 23 22 23 21 20 21 22 21 21 21 19
2 1 4 2 1 2 3 1 3 3 9 2 4 0 0 6 1 0 6 6 13 6 1 2 5 3 7 4 9 5 6 5 3 3 3 2 1 1 2 2 3 1 3 5 5 6 6 5 5 6 5 5 5 6 7 8 15 14 11 8 8 10 11 11 11 14 14 9 7 5 6 8 8 10 14 15 15 13 11 10 12 16 15 15 21 20 20 21 22 22 23 22 19 18 19 20 21
3 5 3 1 1 1 4 1 0 2 9 2 4 2 2 7 2 1 6 6 4 1 1 5 1 5 3 4 15 6 3 7 1 2 3 2 2 1 1 4 3 4 4 5 6 6 6 7 6 6 6 6 5 5 6 7 10 12 10 9 10 12 12 12 12 11 10 9 8 8 9 7 6 5 7 11 17 16 14 9 11 13 15 12 12 19 22 22 20 21 21 22 22 23 24 23 20
2 3 4 3 4 2 3 2 1 6 8 3 3 1 1 6 1 3 0 0 4 7 1 3 6 0 8 11 4 2 6 1 3 3 3 1 1 2 2 3 3 4 4 5 6 6 7 8 8 7 7 7 7 7 6 9 10 11 9 11 13 13 12 12 11 10 2 3 5 8 7 5 4 5 3 1 2 3 7 13 12 14 18 13 11 16 18 18 20 21 21 22 21 21 20 21 19
1 2 1 5 4 3 5 6 7 2 2 8 6 0 2 10 3 4 2 4 4 7 9 6 4 10 10 5 3 0 1 3 3 6 4 4 1 3 4 6 5 8 6 5 7 7 7 8 9 8 7 8 7 6 5 3 5 8 7 8 8 10 11 10 8 9 7 5 5 6 5 3 3 3 5 4 1 1 5 12 14 14 18 16 11 12 13 14 17 19 20 19 17 18 18 11 12
2 2 1 7 4 6 5 4 6 0 8 7 6 2 2 11 1 2 2 9 3 8 11 4 10 13 11 9 7 1 3 2 4 5 8 9 8 10 9 6 8 8 9 8 8 9 8 8 8 9 9 8 9 7 5 5 4 5 6 8 8 9 8 7 8 10 7 7 6 6 5 4 3 5 4 5 6 8 6 10 14 14 16 17 13 12 12 13 15 17 19 19 19 19 11 8 9
1 1 3 6 7 5 6 5 7 6 5 9 9 5 1 6 0 0 3 9 7 11 13 9 5 12 12 5 2 2 3 4 5 7 8 10 10 11 9 9 9 10 11 10 9 6 7 8 10 10 10 8 9 7 6 6 6 7 7 7 7 7 7 7 7 8 8 7 8 7 6 4 3 5 7 9 9 6 3 4 8 12 14 17 10 5 10 11 12 14 15 16 13 7 7 7 8
0 1 3 5 1 3 5 7 8 7 2 4 6 3 5 8 4 1 3 8 13 14 12 11 13 12 10 6 4 2 4 5 6 7 8 9 9 8 10 11 12 10 8 5 5 8 9 10 9 10 10 8 9 8 7 7 7 7 6 6 6 6 6 6 7 7 6 7 6 6 7 4 3 6 6 5 4 4 5 7 6 5 6 9 12 5 6 8 8 8 8 7 6 7 8 7 8
2 8 6 5 1 3 12 5 6 3 3 2 5 7 11 1 2 5 5 9 13 11 13 1 8 9 6 7 5 2 4 7 8 9 12 12 13 13 10 9 6 3 4 8 11 9 11 10 10 8 9 10 10 9 9 7 7 8 7 7 7 6 7 6 6 6 6 6 5 5 5 6 6 5 7 7 6 1 8 8 8 6 6 7 8 7 5 6 7 7 7 7 6 7 8 7 7
3 4 5 5 5 5 3 1 2 3 1 4 6 5 4 7 7 8 6 15 15 18 14 7 7 7 6 3 1 3 4 7 9 12 13 12 13 13 12 11 9 10 8 10 8 9 9 10 10 9 10 10 12 9 8 8 7 8 8 7 8 7 6 7 6 6 6 6 6 5 7 6 6 6 8 8 6 7 7 6 9 9 8 8 8 8 7 6 7 6 5 6 6 6 7 6 7
3 8 4 12 4 11 10 10 6 6 4 9 4 4 8 13 11 2 7 16 17 17 14 8 11 7 5 6 6 8 7 9 12 13 12 15 15 17 14 13 12 6 5 10 8 10 9 12 12 11 10 11 11 11 10 9 7 8 9 8 8 7 8 8 7 7 6 7 6 6 7 7 7 6 6 8 10 9 8 6 6 7 8 7 8 8 8 6 7 7 6 6 7 6 7 6 6
4 6 3 7 4 9 5 6 7 7 8 9 5 5 15 13 7 7 19 11 14 17 8 10 7 6 6 5 9 6 6 7 11 11 8 11 11 9 9 9 8 6 11 12 9 9 12 11 12 13 12 12 10 11 11 9 8 8 9 9 9 8 8 9 8 7 7 6 6 6 5 6 6 7 7 7 7 11 8 8 8 7 7 7 8 9 9 7 7 8 8 7 6 7 7 7 6
5 8 3 6 11 16 10 11 8 5 4 4 3 9 12 14 6 12 21 16 16 14 9 11 4 5 7 8 9 7 7 10 11 10 13 10 8 8 14 12 9 10 18 11 9 12 10 11 13 15 14 12 11 10 10 10 10 10 10 10 9 9 8 8 8 7 7 7 7 6 6 7 7 7 7 7 9 9 7 7 7 7 7 4 5 10 8 8 7 8 8 8 8 8 7 6 7
3 4 6 8 15 14 9 4 12 8 4 6 4 6 7 7 4 11 2 5 6 7 10 8 4 7 8 7 7 5 6 11 14 8 6 9 9 11 16 10 12 18 12 11 13 12 10 11 13 15 13 11 10 11 11 11 11 11 10 10 9 10 9 7 8 8 7 7 8 8 7 6 7 6 6 8 7 9 9 8 8 7 7 6 4 7 9 9 8 7 8 8 8 8 7 6 7
3 4 7 12 10 11 8 7 3 4 5 5 7 8 9 3 1 12 13 11 9 7 10 10 9 9 10 10 9 5 5 11 8 3 13 11 13 13 14 12 16 16 11 17 15 11 11 15 15 13 15 13 11 11 11 12 12 11 11 10 10 10 9 8 7 7 7 8 9 9 9 8 6 7 7 6 8 4 4 8 8 8 7 6 7 6 6 9 9 8 7 7 7 8 7 6 6
2 1 5 6 10 10 8 6 3 4 5 4 5 7 2 1 8 11 12 8 7 7 10 10 11 11 10 10 9 7 8 11 6 7 14 14 11 8 13 14 15 11 12 16 12 9 14 16 15 15 15 15 14 13 11 11 11 10 11 11 10 10 10 9 9 8 7 6 7 9 9 9 7 8 8 9 7 9 7 8 8 7 8 6 7 8 7 8 8 9 7 8 8 7 7 6 5
1 1 1 7 4 7 6 2 1 9 5 9 10 17 6 7 13 11 9 6 6 7 10 10 10 9 8 8 9 9 5 8 11 12 12 12 10 9 10 15 9 11 11 10 8 13 15 11 11 12 13 15 16 15 12 10 11 10 9 10 10 10 9 9 9 9 8 7 7 7 6 6 8 7 8 9 9 8 7 9 8 7 5 6 8 7 9 7 9 9 8 9 7 8 9 7 7
2 0 2 2 11 4 5 6 8 4 2 7 7 9 17 15 8 4 3 0 3 14 18 13 9 8 7 7 8 9 7 6 13 14 12 13 11 8 10 13 11 12 10 9 14 19 16 12 11 11 15 15 15 15 14 14 12 11 11 10 10 11 10 10 9 9 9 8 8 9 8 10 9 8 6 9 8 6 8 8 10 8 8 8 8 6 7 6 8 11 9 9 8 7 7 6 7
2 5 4 3 2 13 13 7 0 8 3 7 7 11 10 15 20 1 2 5 3 13 18 18 14 9 7 6 8 9 9 5 10 11 11 11 10 9 9 14 13 11 13 14 14 13 13 14 14 14 15 17 14 16 15 13 12 12 12 11 10 11 10 10 9 10 9 8 8 9 9 9 9 10 9 7 9 9 8 7 6 8 9 8 8 6 8 7 6 8 7 11 10 8 8 6 5
5 4 6 8 6 9 15 2 1 3 2 2 3 12 17 18 18 22 8 4 5 10 18 19 19 14 10 9 10 10 12 9 6 9 9 9 10 8 10 12 14 13 13 13 13 12 13 14 14 15 16 19 18 15 13 13 11 12 12 12 12 11 10 10 9 9 9 9 8 9 10 10 10 9 10 9 9 9 8 9 6 9 9 9 9 9 9 8 8 8 6 6 9 9 8 8 5
3 2 2 3 8 11 11 13 2 3 4 12 4 6 16 19 23 21 22 11 7 8 17 20 18 14 10 8 9 10 12 12 14 13 13 13 13 14 12 12 14 12 11 12 11 11 13 12 12 14 13 14 14 15 15 13 13 12 10 10 10 11 11 10 9 9 9 9 9 10 10 11 10 10 10 9 9 9 9 9 10 9 9 9 8 8 8 7 8 9 8 5 9 10 9 10 8
7 8 8 9 3 6 11 6 9 13 3 3 9 15 22 18 19 19 20 15 11 15 15 16 15 12 11 11 11 14 15 17 15 13 12 12 16 14 13 11 11 10 9 8 8 8 8 9 9 11 12 13 12 13 13 14 13 12 10 11 11 11 10 10 9 9 9 9 10 11 10 9 11 11 10 8 8 8 7 8 10 10 9 9 8 7 7 8 8 8 9 6 5 9 9 9 9
7 5 6 5 9 16 10 7 10 3 13 9 6 13 22 24 24 22 22 20 16 18 17 10 9 10 10 12 16 16 14 15 13 12 9 12 12 13 12 10 9 8 7 5 5 6 8 9 9 10 11 11 11 12 11 11 11 11 11 9 10 12 12 11 10 10 9 9 9 10 10 10 10 11 10 10 9 9 8 9 9 9 10 11 10 10 8 8 10 9 8 9 8 6 7 9 10
3 2 2 8 8 14 12 7 7 1 7 8 5 14 21 25 24 22 21 22 22 20 20 14 8 9 13 15 15 13 14 12 10 9 10 11 11 12 11 10 9 9 8 5 5 7 8 10 10 13 12 13 11 10 11 10 11 10 13 13 12 13 13 12 12 11 11 10 11 11 10 10 11 11 11 10 10 9 9 9 10 9 11 12 12 12 12 11 9 9 10 9 11 9 4 7 9
1 5 6 10 4 12 14 11 12 4 0 8 7 15 24 28 26 23 19 21 23 18 15 13 9 11 11 12 12 13 10 10 15 16 17 14 14 11 10 9 7 10 11 6 6 7 7 8 11 13 12 14 15 14 12 14 15 14 15 17 15 12 12 13 13 12 12 11 12 12 11 10 11 12 11 12 11 12 10 10 11 11 11 11 12 12 12 10 10 9 9 8 6 10 6 8 11
1 3 6 7 10 6 13 9 6 2 1 11 8 13 23 31 29 23 18 18 17 12 6 6 10 12 11 11 11 12 14 15 16 17 16 15 16 14 10 10 8 5 9 10 8 6 6 7 10 11 12 12 15 16 13 13 14 15 14 14 16 12 11 12 11 10 11 11 12 12 11 11 12 11 12 12 11 11 11 11 12 10 11 11 10 9 9 9 10 12 12 11 9 4 6 5 10
1 4 6 10 7 6 11 12 12 10 2 4 5 10 19 27 25 22 16 14 9 6 6 13 12 11 9 10 9 13 16 16 17 16 16 15 15 15 14 14 13 10 8 7 8 7 6 6 9 11 13 14 14 15 15 13 12 14 13 10 11 11 9 9 11 10 10 12 12 12 11 11 12 12 12 12 11 11 12 12 11 11 10 10 12 11 11 12 10 11 11 11 11 10 7 8 3
3 5 6 7 9 10 5 11 9 16 19 3 4 6 8 20 22 18 16 14 6 7 4 11 10 7 4 7 13 13 14 16 17 18 17 17 17 16 15 12 12 14 14 13 10 10 7 8 10 11 12 14 14 14 15 17 11 9 11 10 9 9 6 8 9 11 11 11 11 12 13 13 14 14 14 14 12 13 12 11 12 11 11 11 10 12 12 13 12 12 12 11 13 12 9 6 2
4 5 9 9 8 9 12 12 12 12 18 2 6 13 11 22 28 24 16 14 15 12 6 11 6 6 9 12 11 12 14 14 16 17 16 14 15 16 18 17 16 15 16 15 12 10 9 10 9 9 10 11 14 15 17 14 17 13 12 13 13 14 13 14 16 17 16 16 16 14 14 14 14 14 13 14 13 12 12 12 12 12 11 11 10 11 12 11 12 12 13 13 12 11 11 10 6
2 7 2 5 6 6 8 11 7 11 15 19 7 9 18 14 28 22 17 17 18 13 7 7 6 6 7 9 10 12 13 15 16 16 18 20 20 20 19 18 16 16 15 14 14 12 10 10 10 9 10 11 14 15 16 12 14 18 18 16 15 17 19 17 18 17 16 14 13 14 13 12 13 13 12 12 12 12 12 12 12 11 11 11 9 9 10 12 11 11 10 11 13 12 12 12 13
4 2 1 3 3 7 8 6 5 11 9 19 5 6 12 17 25 11 8 14 12 6 9 9 7 8 8 8 10 12 14 13 13 13 15 17 19 18 19 17 15 17 16 14 14 13 12 11 11 11 9 11 12 14 15 16 16 14 19 21 16 16 16 14 16 17 16 14 15 15 12 12 14 13 13 13 12 12 12 11 11 10 11 10 10 10 11 10 9 7 7 7 8 10 14 14 13
4 6 7 9 10 9 9 5 9 10 11 18 6 4 5 9 23 4 5 6 5 4 9 11 13 12 10 9 12 12 13 12 11 13 16 17 18 19 20 19 17 16 15 14 15 14 12 11 10 11 11 11 12 15 16 17 17 17 16 17 19 16 15 12 11 11 13 14 15 14 14 13 13 14 13 14 13 13 10 12 11 11 11 10 9 9 8 9 11 11 9 8 10 10 11 10 12
4 9 7 6 4 4 7 7 6 10 5 18 12 6 7 17 19 8 3 6 6 8 11 8 10 10 10 14 15 16 15 13 11 12 13 16 17 17 18 17 17 15 14 13 14 14 12 12 12 12 12 10 10 12 16 18 19 18 17 17 21 20 14 12 10 12 12 13 16 16 15 14 12 12 13 14 14 14 13 11 11 12 12 12 10 10 11 11 10 9 11 11 10 11 8 10 12
4 1 6 13 14 8 5 2 1 2 5 16 9 5 1 19 14 11 4 5 4 2 7 10 9 8 13 15 12 12 12 13 13 13 13 13 12 14 15 17 17 16 14 14 14 15 16 14 13 14 16 14 11 12 14 18 19 18 19 20 19 18 20 17 14 13 13 13 15 15 14 14 13 13 12 13 14 15 15 13 12 12 11 11 11 11 11 12 11 12 9 7 9 12 10 10 11
7 5 7 10 8 5 6 6 1 3 11 11 8 2 9 19 17 5 6 6 8 8 10 11 12 12 14 14 11 12 14 15 15 14 15 16 17 17 16 17 17 17 17 17 15 15 16 16 16 17 17 18 14 12 12 16 17 19 19 21 21 18 19 18 18 16 16 16 17 16 15 14 14 13 13 12 13 14 13 13 12 12 11 10 11 10 10 11 11 10 10 11 10 9 9 9 9
13 7 7 5 6 6 9 3 5 5 13 18 13 12 15 15 11 15 6 7 7 6 8 9 7 9 11 13 12 11 12 15 14 15 16 17 18 20 20 20 17 16 16 19 18 17 17 17 18 17 18 20 18 14 13 15 17 19 18 19 20 17 17 21 19 18 15 15 15 16 15 15 13 13 14 14 14 16 13 13 12 12 11 10 10 10 10 11 10 11 11 12 11 11 11 12 11
6 1 0 3 8 4 7 11 6 11 10 17 25 8 18 16 7 5 5 2 3 3 7 8 8 9 10 10 7 6 9 10 10 10 10 10 13 15 17 17 16 15 16 17 17 17 17 17 18 18 19 19 20 16 13 13 16 18 18 17 17 18 17 15 16 16 16 14 14 16 16 16 16 17 15 15 14 15 14 14 14 13 12 12 12 12 11 11 11 11 12 13 13 12 10 11 11
6 1 4 2 1 2 8 5 14 15 16 23 24 13 4 13 1 4 3 2 9 11 16 14 15 16 17 15 14 14 13 14 13 14 15 17 17 18 18 17 16 15 16 15 14 16 16 17 18 20 20 20 20 18 13 13 14 17 17 17 17 16 18 17 15 14 14 14 14 15 15 14 15 15 16 13 13 16 15 13 14 14 13 13 12 12 11 11 11 10 10 12 11 11 12 13 11
1 3 2 5 1 3 8 11 14 10 12 16 9 7 14 17 9 3 12 13 18 22 24 26 29 28 28 27 28 26 22 19 15 13 13 15 14 14 16 17 14 12 13 12 14 14 15 16 17 19 19 19 18 18 14 12 13 14 17 17 16 17 16 14 14 14 15 15 14 15 15 15 14 13 14 15 16 14 16 16 14 15 15 14 13 13 12 11 11 12 10 10 11 8 11 13 12
5 5 2 1 2 3 7 7 13 18 9 17 8 15 16 15 13 6 17 22 28 27 22 22 21 19 19 18 18 18 17 15 14 13 13 17 18 19 17 15 14 12 12 13 13 13 15 16 16 18 19 20 20 19 16 13 12 12 15 16 16 17 17 17 16 17 18 16 15 15 14 15 14 13 13 14 15 14 13 15 17 16 15 15 13 12 12 11 12 12 11 11 12 10 11 14 11
3 3 7 4 7 6 6 6 3 6 9 10 4 18 23 17 12 6 21 24 26 21 11 15 16 17 19 18 17 17 16 14 13 12 13 14 14 17 19 18 15 14 13 12 13 14 13 14 16 17 18 20 21 20 17 13 13 13 14 14 14 15 18 18 16 15 15 14 14 14 13 12 15 14 12 12 14 15 15 14 13 15 15 13 14 14 13 13 11 10 11 11 12 12 12 9 10
3 7 7 7 7 8 7 5 13 9 12 10 7 16 24 15 17 13 19 21 20 17 16 19 22 20 18 19 20 18 16 13 12 12 12 12 12 13 15 17 15 12 12 11 10 12 12 13 15 15 16 17 18 18 18 13 12 11 11 12 13 14 15 16 16 15 13 14 15 13 14 14 12 12 14 14 14 15 14 14 15 14 14 15 13 12 13 12 13 11 10 11 9 10 11 12 10
3 4 6 3 2 2 4 4 12 4 16 13 14 7 20 8 14 19 20 16 15 17 19 21 21 20 18 18 17 17 15 12 12 12 11 11 12 12 13 15 15 12 12 12 11 11 12 12 13 16 17 17 18 20 20 17 13 11 10 8 9 10 14 13 14 15 15 16 15 14 13 12 15 12 12 15 15 15 15 15 16 16 15 14 15 14 13 13 13 12 11 11 10 11 12 12 11
6 5 3 2 2 3 5 5 6 2 9 10 12 17 15 8 7 14 14 15 20 22 22 20 18 18 19 18 18 16 14 13 13 12 11 11 12 12 13 13 12 10 10 10 9 10 9 9 11 13 16 17 18 19 19 18 16 13 12 9 11 10 13 15 16 16 16 15 14 13 14 13 10 13 14 13 16 17 16 16 16 14 14 14 14 14 13 11 11 12 11 11 10 11 12 11 11
1 2 4 6 8 8 9 14 1 4 5 9 9 19 17 9 2 8 13 19 20 19 20 20 19 17 18 18 17 16 14 14 13 13 11 11 11 13 13 13 11 9 10 11 11 8 8 9 9 10 13 14 16 17 17 19 18 16 14 12 12 11 11 11 13 16 16 15 14 14 14 12 14 13 14 17 15 15 16 16 15 17 17 16 15 14 14 12 12 12 11 9 10 12 11 9 10
Wind_Direction
1 340 336 166 70 112 41 4 99 306 56 216 322 292 263 57 141 345 269 342 271 248 205 118 128 136 172 200 195 200 206 156 201 146 222 235 296 280 257 251 253 285 228 191 182 201 215 221 215 214 211 208 207 213 214 212 211 218 206 203 202 210 217 217 215 215 211 203 205 207 209 213 217 219 220 225 223 221 227 231 229 225 211 201 195 189 176 169 170 165 164 163 159 154 146 137 135
39 21 31 147 41 85 239 104 94 18 36 24 256 119 257 283 34 221 226 193 202 225 267 168 200 294 11 177 194 77 268 216 181 207 270 247 297 270 227 223 224 220 218 208 192 210 221 237 234 233 215 212 215 215 213 216 218 218 216 205 201 211 218 222 220 218 212 205 206 206 207 212 215 216 225 235 230 226 227 230 226 223 214 205 197 192 175 172 170 163 171 167 168 156 142 134 135
41 69 61 1 23 68 70 43 82 99 63 286 271 221 320 273 221 250 224 213 223 235 340 164 352 177 258 8 305 187 263 260 260 292 247 329 10 261 210 198 195 224 209 205 204 206 208 235 249 241 241 214 213 218 214 215 226 243 245 223 205 207 220 227 226 223 217 210 207 202 203 209 212 210 219 234 241 237 236 232 221 219 214 207 200 196 179 172 164 160 169 150 156 148 141 137 138
94 74 123 99 20 28 48 16 88 125 159 219 309 272 207 203 245 229 242 243 267 342 339 215 177 234 154 242 221 68 269 284 205 167 253 221 209 239 222 176 193 208 216 206 212 204 189 210 235 259 261 239 214 219 217 216 216 221 243 237 218 208 218 225 226 224 223 220 214 208 203 206 203 201 214 228 232 242 239 231 220 213 213 207 201 198 180 169 162 165 164 160 147 142 132 129 128
62 9 87 101 101 36 98 108 141 82 260 197 226 279 239 227 246 260 269 266 266 233 280 110 332 297 204 219 81 215 240 224 294 192 245 261 246 232 174 157 164 183 223 201 202 209 205 199 218 251 266 263 228 224 197 182 216 233 238 231 215 212 220 224 226 224 223 223 220 215 206 204 207 199 211 221 237 235 245 224 208 209 211 207 206 192 182 165 168 163 159 158 150 141 142 139 141
46 62 357 97 88 185 69 59 355 231 222 149 206 252 233 233 237 245 275 297 259 182 200 348 211 334 334 220 185 205 203 267 205 183 182 246 221 202 173 162 157 196 210 197 195 199 208 205 202 224 249 258 247 225 197 197 217 240 239 220 206 215 224 223 228 238 232 288 292 267 224 206 203 202 207 201 228 220 241 214 194 205 212 210 209 185 174 181 167 164 167 156 149 143 140 138 138
93 18 352 28 21 60 153 204 246 219 271 163 213 243 234 257 228 347 309 342 284 205 172 219 8 310 316 278 288 241 203 122 101 231 178 287 315 165 166 166 164 199 194 190 185 197 207 211 204 205 230 254 256 237 223 206 220 237 237 222 208 216 221 206 123 170 193 220 210 235 278 240 205 201 196 193 184 155 190 197 177 169 210 211 214 180 172 182 173 168 163 154 146 141 137 135 133
43 123 326 111 293 45 87 154 257 151 274 171 240 233 270 254 210 194 253 105 288 317 178 298 79 139 252 95 258 268 317 232 211 309 272 304 235 212 165 165 184 209 193 168 170 183 197 206 207 207 217 234 253 237 216 220 230 231 237 227 214 219 212 180 199 211 207 227 263 244 252 270 234 189 167 221 163 153 177 191 181 164 169 174 145 170 168 185 171 166 164 155 141 135 134 133 132
15 83 198 66 9 38 47 295 270 239 280 288 265 235 282 250 163 183 239 221 322 231 270 264 216 5 243 350 237 264 289 247 248 269 272 256 211 195 175 179 190 199 182 167 176 176 189 204 203 208 218 236 245 234 224 218 229 233 237 237 223 217 190 188 191 205 205 222 275 239 223 252 256 216 219 220 192 162 179 197 193 160 160 157 153 159 166 176 175 172 161 149 140 139 137 133 133
25 59 325 104 137 350 33 299 23 264 230 241 273 278 255 199 197 210 250 298 210 310 257 197 179 231 283 292 287 293 250 326 301 277 243 228 221 203 197 199 202 166 169 179 168 176 185 200 196 204 215 234 248 241 236 223 221 230 233 228 250 222 199 182 170 149 209 207 224 248 251 221 237 210 227 242 203 164 174 184 203 148 150 153 152 151 160 165 156 153 153 144 140 139 136 135 135
343 17 140 65 28 342 324 294 270 314 282 316 292 248 243 172 152 203 201 244 227 218 299 162 15 238 255 257 235 228 284 308 185 228 213 207 218 217 212 200 182 170 176 189 177 173 182 191 203 208 216 230 238 244 234 224 230 238 233 231 248 216 152 168 175 156 190 205 223 233 219 215 209 208 215 214 229 155 148 161 172 151 139 144 156 160 151 154 149 152 149 147 142 140 138 139 139
2 5 17 105 257 174 257 254 293 285 300 336 276 322 227 165 111 270 246 246 271 254 237 140 239 146 208 283 278 284 303 285 219 232 208 188 219 235 233 239 133 180 189 185 174 183 179 186 200 215 219 224 233 239 220 219 227 237 232 214 197 169 148 143 150 170 194 213 223 226 223 208 206 197 203 205 200 157 139 139 133 124 124 135 166 131 149 147 152 157 159 146 142 141 140 139 137
93 108 71 91 199 173 234 273 259 292 306 297 244 330 105 132 192 222 243 244 263 314 286 209 132 111 274 230 254 311 317 251 216 205 226 185 226 258 271 265 233 201 197 189 177 187 186 185 200 216 220 217 216 230 202 217 228 238 236 213 166 151 152 153 156 170 201 213 217 218 226 219 213 195 196 188 188 164 156 145 137 128 111 111 130 140 136 135 145 146 140 142 141 141 143 139 127
113 175 134 291 53 190 236 255 292 348 302 256 249 272 273 191 234 223 156 284 250 217 232 197 141 159 257 351 291 287 257 267 218 182 150 185 215 283 251 258 241 213 212 202 192 182 189 195 196 211 220 216 194 193 230 231 227 235 228 199 149 145 147 150 156 152 193 221 212 225 220 214 220 206 188 174 176 180 162 155 134 128 126 138 121 122 127 128 130 136 138 139 141 150 152 141 120
137 134 82 113 117 21 235 18 295 314 276 235 274 15 321 259 193 131 186 241 261 217 242 148 179 109 249 173 295 235 248 309 306 168 123 94 73 32 278 246 257 201 206 225 202 183 199 206 209 203 211 215 190 179 207 232 229 224 213 196 159 148 141 147 149 163 183 207 208 243 219 217 231 217 178 177 180 181 170 164 141 137 137 136 124 122 117 119 131 138 142 141 143 144 137 128 140
138 94 72 79 269 61 274 172 23 333 271 191 249 338 273 269 234 259 241 194 277 346 131 248 170 209 235 167 257 256 264 336 355 111 104 90 44 37 245 247 245 247 234 222 209 198 189 202 222 212 201 205 186 180 205 206 223 207 198 187 161 149 147 153 154 165 171 179 194 214 217 202 197 168 176 187 188 181 172 162 145 135 120 122 131 131 129 135 141 141 144 151 156 150 145 149 156
75 83 32 49 309 162 257 198 166 294 287 244 285 310 278 299 277 260 79 98 280 260 206 211 204 292 240 230 257 292 305 10 94 98 93 79 71 302 263 237 235 244 232 225 210 205 192 197 209 213 203 198 187 180 208 192 203 186 177 167 159 157 159 162 162 127 44 271 183 188 173 175 183 177 128 338 3 197 195 158 146 134 128 137 131 132 131 138 145 147 150 152 152 151 150 149 149
52 56 118 309 214 142 211 190 191 208 304 295 319 161 320 294 326 272 347 274 237 289 276 262 288 255 235 256 73 308 354 107 150 146 183 190 181 238 237 228 211 229 217 221 222 210 200 195 199 205 201 190 174 174 193 206 191 170 165 165 162 163 166 167 123 127 205 200 189 159 153 143 158 146 116 94 40 305 256 171 146 135 134 140 159 139 124 131 141 147 149 153 152 146 143 140 138
89 134 98 246 186 234 161 207 215 248 278 289 287 310 233 272 270 294 337 283 280 304 278 230 257 264 265 267 259 57 110 164 184 199 188 196 200 213 218 216 220 229 228 224 224 210 203 201 195 202 203 190 171 164 179 172 177 163 162 164 167 166 169 157 150 164 178 182 180 170 158 146 146 155 137 144 97 207 238 188 141 136 128 135 160 135 123 120 128 140 144 148 147 141 135 133 129
205 125 279 243 211 248 223 212 238 188 280 298 306 312 74 260 198 318 245 285 307 271 276 302 238 263 278 276 290 193 160 185 205 206 211 213 210 210 216 217 220 222 222 214 220 209 202 204 201 201 197 191 176 168 167 167 172 165 155 162 164 165 163 161 163 166 172 182 178 167 169 156 159 155 142 135 122 142 172 308 129 125 120 124 136 128 115 117 103 109 123 124 126 122 117 121 121
292 113 208 238 203 328 257 205 238 255 198 266 278 307 318 289 240 133 256 328 289 279 258 223 257 264 266 278 272 208 193 199 214 222 231 232 230 227 220 215 211 215 220 215 221 213 202 205 201 201 194 189 178 172 162 165 172 152 153 160 163 162 162 164 168 169 176 183 176 167 164 153 145 140 144 140 123 135 156 162 151 132 116 123 130 118 104 106 103 109 103 102 106 113 114 119 120
113 215 215 216 271 275 261 214 234 212 171 244 289 318 277 1 306 233 220 243 268 266 277 176 239 258 274 293 281 180 197 213 213 218 223 224 223 225 229 240 249 253 200 204 213 208 207 203 201 200 193 191 184 176 170 160 167 156 158 164 162 166 164 168 171 173 180 180 173 168 152 153 147 147 136 140 127 287 183 188 143 134 111 113 106 94 85 98 105 110 116 118 116 117 120 119 122
293 293 260 240 227 237 280 221 187 138 307 274 291 261 336 283 278 268 226 236 253 261 270 281 268 269 269 269 203 228 216 228 222 224 222 228 234 235 231 227 219 221 209 221 202 210 206 201 198 194 197 194 191 175 162 155 176 162 159 164 167 175 170 166 178 180 183 178 176 167 162 171 165 158 148 155 146 163 235 187 153 142 140 131 117 109 108 105 104 102 101 105 105 108 110 110 115
183 258 304 293 180 228 260 276 297 279 193 256 244 340 294 281 294 276 238 246 251 271 283 301 283 292 277 281 252 243 231 228 234 232 223 225 225 228 225 223 223 221 219 229 209 208 203 201 192 193 200 194 193 180 172 169 170 163 166 164 176 182 171 176 181 185 175 184 182 179 179 171 170 161 159 152 165 165 227 173 148 137 133 137 123 115 116 117 119 115 111 104 101 99 102 100 104
195 255 265 273 314 256 262 269 277 265 245 247 271 272 259 259 244 345 271 267 278 274 291 288 294 302 302 265 271 260 252 257 253 249 253 245 241 252 256 244 237 218 233 227 215 211 209 197 188 196 198 196 194 182 179 180 169 167 164 172 179 182 187 181 181 174 183 182 187 181 174 174 173 165 170 161 157 170 217 160 150 143 132 140 133 125 130 138 129 127 125 118 113 109 108 107 107
213 235 303 291 289 293 304 306 279 289 278 170 149 232 259 266 319 262 265 280 267 275 300 279 316 305 275 251 248 243 238 247 255 254 242 253 256 249 248 232 224 222 226 218 211 216 208 192 192 197 196 196 196 187 181 181 179 172 173 179 179 174 197 185 175 182 182 176 182 184 185 180 177 168 174 161 157 171 191 144 139 139 134 137 157 136 138 132 133 125 126 128 124 119 115 119 117
155 259 275 286 284 310 312 315 311 320 248 151 169 248 252 270 123 282 122 236 270 309 283 302 337 288 278 273 273 254 234 245 244 253 276 248 245 231 244 231 221 228 225 220 219 214 202 190 199 196 195 194 194 194 189 187 180 182 177 178 175 182 184 181 186 182 180 183 180 177 185 182 174 162 168 163 163 168 169 155 139 135 139 150 134 138 135 132 127 130 139 138 132 123 119 123 118
218 235 322 297 306 294 273 301 314 355 332 152 176 243 245 333 160 244 273 279 285 290 294 298 300 285 284 283 279 275 250 258 270 255 253 255 239 229 238 226 227 229 212 224 219 206 198 201 199 191 193 193 192 194 189 188 187 187 179 176 182 181 175 178 186 189 187 187 180 181 182 176 166 173 164 171 164 155 197 141 141 144 155 155 130 121 116 126 127 123 116 110 112 116 116 114 119
282 74 299 295 346 329 321 328 334 20 298 344 249 237 181 270 210 240 254 272 299 315 291 284 279 278 279 279 281 277 261 277 280 246 251 251 255 245 244 239 237 232 228 228 221 201 206 204 195 194 191 190 196 197 191 186 184 185 183 182 180 179 176 177 180 186 191 188 183 183 181 172 163 166 167 167 172 160 177 155 153 159 163 151 120 123 115 114 114 114 110 107 104 104 108 108 108
354 27 231 315 355 317 293 322 27 354 294 355 7 324 296 224 236 265 265 286 317 304 283 278 273 274 278 284 286 288 280 281 274 257 261 265 264 261 256 258 251 240 239 233 217 215 213 202 197 194 190 191 195 198 196 195 189 186 184 184 179 179 180 179 184 183 180 179 185 191 176 158 162 166 163 172 182 165 176 157 156 153 145 136 126 134 126 126 122 116 124 120 129 133 134 137 128
316 222 58 20 338 286 305 337 317 354 276 16 34 304 299 304 275 223 279 151 321 300 297 290 275 277 283 285 286 288 283 235 263 272 268 268 270 270 261 272 262 247 247 233 217 219 211 201 193 195 193 195 191 194 193 196 193 190 187 187 183 180 181 185 182 179 177 180 175 181 179 176 174 178 173 173 161 186 170 165 160 161 154 145 135 123 102 106 127 134 137 127 127 123 120 130 130
354 35 324 331 33 295 308 295 6 339 321 6 6 283 287 298 294 307 173 295 296 293 297 301 303 305 304 307 303 300 296 261 267 271 275 283 290 287 280 274 267 254 241 234 230 228 218 209 198 198 192 195 195 195 193 191 189 188 186 187 186 183 180 183 182 180 176 173 178 183 186 179 174 183 180 176 170 178 172 160 159 151 149 141 131 134 120 117 117 123 142 140 133 129 126 112 120
3 69 296 319 316 300 328 337 210 125 258 331 56 280 310 303 310 310 304 236 277 292 299 303 310 323 335 332 325 320 316 316 300 302 307 307 304 300 292 285 278 261 252 244 235 228 224 215 206 198 192 196 199 200 194 189 185 188 188 183 184 183 182 184 182 177 174 171 177 185 185 174 176 182 191 186 179 173 170 152 157 160 150 142 148 152 152 145 142 136 139 141 131 134 129 123 119
320 44 303 266 298 322 316 312 327 101 50 311 312 269 271 281 297 301 308 322 308 290 297 303 316 331 340 330 331 327 331 336 337 342 348 343 332 325 310 295 291 280 263 254 245 233 229 222 214 205 200 196 194 197 200 197 192 188 187 185 180 184 186 186 180 176 180 177 176 186 185 172 175 178 188 192 183 174 171 160 159 164 148 145 145 151 157 145 136 140 139 140 138 136 141 139 134
306 328 326 318 276 209 248 296 284 330 318 204 298 290 288 292 293 300 303 310 309 297 295 306 322 340 347 348 348 352 354 354 354 352 348 348 347 335 327 314 301 287 274 266 261 253 248 238 229 221 208 199 197 193 194 195 192 188 182 183 185 186 187 187 180 179 180 177 182 183 183 175 172 175 182 181 174 166 167 159 161 160 143 139 142 146 139 146 145 154 144 132 135 143 142 137 131
282 285 280 283 314 309 287 258 281 305 306 311 292 286 301 304 302 306 308 308 307 299 303 314 340 354 358 2 10 10 8 9 356 350 353 356 348 335 325 319 306 296 288 282 273 258 247 244 234 226 216 205 201 196 188 190 184 182 177 179 190 191 188 185 184 180 175 179 184 182 183 178 171 171 177 178 173 167 166 161 159 161 151 149 152 149 152 160 160 147 140 135 124 103 116 131 127
284 304 273 283 291 291 291 284 272 86 322 297 315 301 300 297 298 303 305 308 307 308 313 330 19 16 14 20 20 14 15 2 345 356 358 351 348 338 325 317 315 306 294 284 267 247 238 236 236 230 219 207 203 204 195 189 184 184 185 186 192 189 185 182 182 179 177 181 184 184 184 181 175 168 174 175 175 169 168 163 155 172 159 159 160 167 166 163 163 158 143 140 136 130 116 134 135
250 308 301 305 299 279 286 299 304 311 174 295 334 315 302 296 299 298 302 301 299 309 317 346 32 45 43 28 14 12 360 354 1 3 357 352 347 340 330 325 324 322 312 311 263 246 237 238 238 240 229 216 209 211 207 202 196 191 189 189 187 185 180 181 185 181 180 181 181 184 184 183 180 175 175 178 175 174 168 155 159 171 168 161 163 161 163 162 158 149 150 131 144 139 142 160 153
338 252 300 330 282 250 286 289 281 305 45 287 351 323 298 294 295 295 297 290 292 302 340 55 53 46 31 23 15 6 5 2 358 357 355 351 346 346 342 339 327 279 287 294 283 271 246 234 239 241 237 226 217 210 215 215 206 198 197 197 189 187 190 185 180 180 175 177 181 185 185 182 181 180 178 178 178 177 172 165 172 169 167 158 147 151 150 157 164 164 162 150 148 130 119 184 168
233 293 317 284 287 347 303 303 320 316 206 280 319 287 285 289 289 292 282 276 291 304 57 74 67 55 35 23 8 5 4 1 356 351 351 348 349 350 352 349 340 328 317 299 297 277 260 240 238 237 237 234 226 218 215 226 223 214 210 202 197 190 184 180 173 171 179 178 184 186 189 183 180 182 181 180 180 181 176 174 172 171 168 161 159 156 161 170 175 170 164 155 149 141 147 183 213
225 213 253 278 292 279 254 297 330 312 300 259 181 250 279 279 289 291 297 300 312 304 5 83 57 52 46 17 17 10 3 354 352 350 351 351 351 351 346 341 339 344 338 331 315 299 279 256 243 239 237 237 235 225 218 219 225 225 205 202 188 184 163 176 169 180 186 185 183 189 192 185 185 183 182 182 182 181 179 177 175 172 166 170 165 163 166 177 180 178 165 155 160 156 155 148 206
307 236 207 242 271 296 298 305 350 326 304 333 83 321 275 293 289 288 304 306 303 304 357 67 48 39 26 24 11 3 0 357 353 348 347 348 349 348 349 345 347 343 340 333 323 299 287 279 262 247 244 241 242 233 217 212 211 213 207 196 191 186 190 179 181 179 182 189 193 187 187 188 187 185 183 182 182 180 180 179 176 169 170 171 176 173 175 174 178 176 177 167 161 154 152 149 151
16 281 196 232 257 275 290 299 357 306 306 303 48 293 296 284 285 293 301 299 294 303 54 65 42 27 27 24 15 5 2 355 352 352 352 353 352 350 348 345 339 338 332 327 323 315 300 285 277 259 245 241 241 241 230 219 219 204 209 216 207 197 193 193 188 185 187 189 184 183 183 186 186 186 183 184 182 181 179 178 176 172 171 173 175 164 167 177 181 185 174 170 170 154 151 165 168
282 223 55 308 305 285 273 280 248 269 274 284 311 204 271 290 273 297 277 277 294 324 47 32 29 32 22 24 15 5 0 357 351 352 354 351 351 351 344 338 334 330 326 324 320 318 312 298 287 271 253 244 240 239 236 221 218 216 204 206 216 216 209 201 186 186 186 185 187 181 178 183 187 187 183 185 184 182 179 177 174 174 174 175 169 173 172 168 166 164 176 170 151 165 171 171 170
228 302 343 309 294 289 284 276 279 273 302 291 302 271 280 245 280 341 300 298 301 13 39 20 7 11 20 12 6 7 359 358 355 354 354 353 350 348 344 338 331 328 329 328 323 313 308 307 294 279 261 246 239 238 240 232 223 216 214 210 211 218 218 210 198 186 183 181 186 186 181 181 188 189 187 183 183 183 183 179 177 175 175 173 177 168 153 164 171 170 168 162 166 173 183 172 167
304 323 316 275 250 237 251 276 295 293 328 278 293 268 266 277 285 355 311 272 20 14 22 10 0 3 11 2 359 0 0 358 359 355 348 347 347 345 339 332 333 334 328 328 331 323 317 319 309 292 280 261 247 240 236 237 230 220 216 212 209 205 210 210 199 194 186 178 186 189 186 182 183 189 190 188 185 184 183 181 179 178 176 175 178 172 171 177 174 176 178 174 169 172 173 166 179
296 350 337 331 326 309 301 271 200 18 253 277 273 289 210 293 291 317 346 78 110 49 352 356 4 20 5 360 359 359 0 358 351 345 341 338 338 338 337 337 335 335 335 338 340 341 338 333 323 314 301 287 268 249 239 238 235 225 218 216 216 206 197 200 200 196 189 182 187 187 188 187 183 187 187 191 189 187 186 183 180 182 180 176 178 174 172 178 181 183 177 174 172 170 170 174 172
26 19 345 324 306 352 331 316 18 227 271 272 301 52 326 300 305 76 321 25 68 38 9 358 9 6 357 350 349 356 360 355 345 343 342 338 340 345 347 346 344 341 341 344 343 345 343 336 331 326 317 303 284 260 244 240 238 233 223 218 214 211 200 200 200 200 192 186 183 186 188 188 188 185 186 189 192 190 188 186 183 178 180 179 183 180 176 177 178 171 166 186 185 180 172 164 167
20 322 347 6 295 336 309 19 334 263 283 290 285 329 312 251 281 309 352 78 10 16 11 15 12 349 343 345 352 1 358 348 343 341 341 344 346 345 348 348 348 347 345 344 344 342 341 339 335 332 322 312 297 273 252 243 238 236 229 222 216 210 204 199 198 198 198 193 186 185 185 192 186 187 190 189 192 188 186 185 184 182 181 182 179 178 179 176 171 171 173 186 181 185 188 184 177
347 23 50 43 330 331 295 314 285 285 276 283 295 347 269 281 296 92 88 47 342 311 351 11 351 342 337 340 355 2 349 339 332 323 323 334 341 343 346 347 345 344 345 344 341 341 337 334 335 334 325 319 309 289 261 249 240 237 232 227 218 209 217 207 197 196 195 197 193 189 187 189 190 191 186 191 188 186 188 186 183 184 184 181 179 181 177 176 172 176 178 183 185 190 181 184 189
297 188 111 350 88 352 319 305 299 291 288 297 298 334 253 319 116 180 77 255 338 345 354 350 348 344 347 343 348 353 353 352 345 338 338 343 345 346 347 346 345 343 342 341 339 335 333 331 333 333 330 324 316 299 269 257 246 238 233 224 216 214 210 208 210 204 196 196 196 193 191 191 194 192 186 186 186 187 185 187 186 183 184 187 186 184 179 175 180 175 182 185 185 178 185 183 186
270 178 77 52 110 137 251 267 274 276 286 290 292 230 289 282 339 327 0 355 346 351 351 352 349 347 348 350 349 345 344 342 338 330 328 333 337 342 344 343 340 336 336 334 333 332 328 326 326 331 330 327 322 305 276 263 256 240 232 225 219 216 211 208 207 201 202 200 200 197 192 191 195 193 191 180 187 187 184 184 187 188 186 187 187 187 182 177 177 176 181 182 183 177 179 184 186
298 32 346 248 242 224 282 277 253 272 285 268 304 292 279 293 308 331 357 350 346 347 352 347 339 334 337 337 336 330 327 326 325 323 327 333 338 343 344 341 334 331 332 331 327 324 324 324 326 330 333 333 330 316 285 271 268 255 238 224 214 217 218 205 201 203 200 197 198 200 198 192 190 192 193 191 185 182 187 189 182 188 191 187 184 187 182 183 179 179 178 181 183 179 180 187 181
45 356 283 275 286 158 174 252 239 252 260 277 325 295 293 306 297 61 359 341 334 332 333 323 319 332 334 328 326 323 319 313 309 311 322 330 336 336 336 335 332 324 322 321 322 322 321 323 323 329 335 337 332 323 299 284 281 266 249 233 223 217 212 208 206 205 201 199 196 195 194 191 191 192 191 191 188 184 184 188 191 190 187 188 188 186 184 181 181 186 183 183 185 174 180 182 183
38 292 310 15 335 341 312 330 301 329 289 287 274 296 284 299 299 345 337 331 321 326 323 322 326 329 324 322 318 317 313 308 307 311 312 320 325 328 327 324 319 310 307 308 308 312 316 325 325 328 333 332 331 326 311 285 280 273 262 240 221 218 225 214 204 205 199 204 201 195 194 192 185 182 185 187 192 189 186 189 190 193 186 183 188 189 184 184 180 184 184 185 182 178 177 179 184
120 83 355 269 74 337 340 272 287 309 288 300 294 258 276 326 320 331 319 314 318 315 322 321 318 316 318 315 313 310 306 297 296 294 297 306 313 318 319 318 312 306 306 308 310 310 316 323 327 328 329 336 337 333 324 306 288 278 270 273 268 235 220 222 208 204 205 204 203 198 194 193 187 181 187 184 187 193 188 184 194 188 188 188 185 186 187 185 181 185 181 184 182 180 183 183 179
355 28 356 34 0 279 296 254 265 228 275 272 309 293 280 299 319 305 310 316 317 318 317 313 310 312 310 311 309 305 296 292 289 288 292 299 304 310 315 313 304 295 294 296 297 304 306 313 323 326 329 331 334 331 326 321 307 290 281 255 238 232 234 217 213 208 204 205 200 199 198 195 188 183 177 186 189 192 193 189 188 186 194 188 188 185 186 183 185 183 180 183 175 180 187 187 172
209 82 11 20 344 351 349 300 251 304 297 295 307 284 277 311 256 298 319 315 311 314 310 307 308 309 306 308 306 299 295 288 285 284 288 291 297 307 314 311 303 290 291 295 295 294 300 309 317 322 325 329 332 329 326 322 318 308 295 276 260 236 221 233 226 205 208 201 197 199 198 187 191 195 184 181 189 193 196 192 187 192 191 189 189 188 180 178 183 184 181 179 174 178 185 185 173